Charlottenlund, Denmark
Current Conditions -  °F | °C
As of 3:20 PM on Sunday 25 Jan 2015 (Local Time) from EKCH Reporting Station
Few Clouds Few Clouds  
Wind Chill: 32°   Ceiling: Unl
Heat Index: 37°   Visibility: 6mi
Dew Point: 34°   Wind: 7mph
Humidity: 87%   Direction: 280°W
Pressure: 30.18"   Gusts: NA
Location:  55.75°N, 12.59°E
Report Text: EKCH 251420Z 28006KT 9999 FEW012 03/01 Q1022 R04L/610168R04R/610159 R12/610171 NOSIG
Loading
Personal Weather Stations






























Interactive Weather Map New forecast layout! Learn more

10-Day Weather Forecast

Advertisements
Track Severe Weather on mobile